This is the latest recevied weather packets stored in our database for station/object IR9AK-10. If no packets are shown the sender has not sent any weather packets the latest 10 day(s).
| Time | Temp. | Humidity | Pressure | Rain* | Wind** | Luminosity | Snow |
|---|---|---|---|---|---|---|---|
| 1777523549 | 19.44° C | 54% | 1059.3 hPa | - | - | - | - |
| 1777523223 | 19.44° C | 54% | 1059.3 hPa | - | - | - | - |
| 1777522624 | 18.89° C | 59% | 1059.6 hPa | - | - | - | - |
| 1777522025 | 19.44° C | 62% | 1059.7 hPa | - | - | - | - |
| 1777521426 | 19.44° C | 61% | 1059.8 hPa | - | - | - | - |
| 1777520826 | 19.44° C | 58% | 1059.9 hPa | - | - | - | - |
| 1777520227 | 19.44° C | 55% | 1059.8 hPa | - | - | - | - |
| 1777519629 | 19.44° C | 56% | 1059.7 hPa | - | - | - | - |
| 1777519029 | 19.44° C | 57% | 1059.5 hPa | - | - | - | - |
| 1777518430 | 19.44° C | 58% | 1059.5 hPa | - | - | - | - |
| 1777517830 | 19.44° C | 58% | 1059.4 hPa | - | - | - | - |
| 1777517231 | 19.44° C | 58% | 1059.5 hPa | - | - | - | - |
| 1777516632 | 20° C | 58% | 1059.4 hPa | - | - | - | - |
| 1777516033 | 20° C | 59% | 1059.7 hPa | - | - | - | - |
| 1777515435 | 20° C | 58% | 1059.7 hPa | - | - | - | - |
| 1777514835 | 20° C | 57% | 1059.5 hPa | - | - | - | - |
| 1777514235 | 20° C | 55% | 1059.5 hPa | - | - | - | - |
| 1777513636 | 20° C | 57% | 1059.5 hPa | - | - | - | - |
| 1777513036 | 20° C | 64% | 1326.2 hPa | - | - | - | - |
| 1777512437 | 20° C | 65% | 1059.5 hPa | - | - | - | - |
| 1777511839 | 20° C | 66% | 1059.5 hPa | - | - | - | - |
| 1777511240 | 20° C | 65% | 1059.5 hPa | - | - | - | - |
| 1777510640 | 20° C | 65% | 1059.4 hPa | - | - | - | - |
| 1777510041 | 20° C | 64% | 1059.3 hPa | - | - | - | - |
| 1777509442 | 20° C | 62% | 1059.3 hPa | - | - | - | - |
* Rain since midnight (hover to see other rain measurements)
** Current wind speed in m/s (hover to see current wind gust speed)